When you browse on this site, cookies collect data to enhance your experience and personalize the content and advertising you see.
Visit our Privacy Policy to learn more. By continuing to use the site, you agree to this use of cookies and data.
  • In Portugal
  • List of Countries
  • For 7 days
  • Water Temperature
  • Satellite Maps
  • Weather Map
  • Weather Widgets
  • user-avatar
    Login

    Hourly Weather Aberdeen

    Today, 18 July, Thursday

    Time Temperature Precipitation Wind Pressure Humidity
    00:00 +15°C° 0 mm 2 mps 745 mmHg 98%
    01:00 +14°C° 0.5 mm 3 mps 744 mmHg 97%
    02:00 +13°C° 0.5 mm 3 mps 744 mmHg 96%
    03:00 +13°C° 0.5 mm 4 mps 744 mmHg 94%
    04:00 +13°C° 0 mm 4 mps 744 mmHg 93%
    05:00 +12°C° 0 mm 4 mps 744 mmHg 91%
    06:00 +12°C° 0 mm 4 mps 744 mmHg 91%
    07:00 +13°C° 0 mm 4 mps 744 mmHg 86%
    08:00 +15°C° 0 mm 4 mps 745 mmHg 82%
    09:00 +16°C° 0 mm 5 mps 745 mmHg 77%
    10:00 +17°C° 0.2 mm 5 mps 744 mmHg 75%
    11:00 +17°C° 0.2 mm 6 mps 744 mmHg 73%
    12:00 +19°C° 0.2 mm 6 mps 744 mmHg 71%
    13:00 +19°C° 0.2 mm 6 mps 744 mmHg 71%
    14:00 +19°C° 0.2 mm 6 mps 744 mmHg 72%
    15:00 +19°C° 0.2 mm 6 mps 745 mmHg 72%
    16:00 +17°C° 0.2 mm 6 mps 744 mmHg 74%
    17:00 +17°C° 0.2 mm 6 mps 744 mmHg 75%
    18:00 +16°C° 0.2 mm 5 mps 744 mmHg 77%
    19:00 +15°C° 0 mm 5 mps 745 mmHg 81%
    20:00 +14°C° 0 mm 4 mps 745 mmHg 85%
    21:00 +12°C° 0 mm 3 mps 746 mmHg 89%
    22:00 +12°C° 0 mm 3 mps 746 mmHg 90%
    23:00 +11°C° 0 mm 3 mps 746 mmHg 92%

    Tomorrow, 19 July, Friday

    Time Temperature Precipitation Wind Pressure Humidity
    00:00 +10°C° 0 mm 3 mps 746 mmHg 94%
    01:00 +10°C° 0 mm 3 mps 746 mmHg 95%
    02:00 +10°C° 0 mm 3 mps 746 mmHg 95%
    03:00 +9°C° 0 mm 3 mps 746 mmHg 95%
    04:00 +10°C° 0 mm 3 mps 746 mmHg 94%
    05:00 +11°C° 0 mm 3 mps 746 mmHg 93%
    06:00 +12°C° 0 mm 3 mps 746 mmHg 92%
    07:00 +13°C° 0 mm 3 mps 746 mmHg 87%
    08:00 +14°C° 0 mm 3 mps 746 mmHg 81%
    09:00 +17°C° 0 mm 3 mps 746 mmHg 76%
    10:00 +17°C° 0.2 mm 3 mps 746 mmHg 76%
    11:00 +18°C° 0.2 mm 3 mps 746 mmHg 76%
    12:00 +18°C° 0.2 mm 4 mps 746 mmHg 76%
    13:00 +18°C° 0.5 mm 4 mps 745 mmHg 79%
    14:00 +17°C° 0.5 mm 4 mps 745 mmHg 82%
    15:00 +16°C° 0.5 mm 5 mps 745 mmHg 85%
    16:00 +15°C° 0.8 mm 4 mps 744 mmHg 88%
    17:00 +14°C° 0.8 mm 3 mps 744 mmHg 92%
    18:00 +14°C° 0.8 mm 2 mps 743 mmHg 96%
    19:00 +14°C° 1 mm 2 mps 743 mmHg 97%
    20:00 +14°C° 1 mm 2 mps 743 mmHg 97%
    21:00 +13°C° 1 mm 3 mps 743 mmHg 98%
    22:00 +13°C° 1.2 mm 3 mps 742 mmHg 97%
    23:00 +13°C° 1.2 mm 3 mps 742 mmHg 96%

    Day after tomorrow, 20 July, Saturday

    Time Temperature Precipitation Wind Pressure Humidity
    00:00 +14°C° 1.2 mm 2 mps 742 mmHg 95%
    01:00 +13°C° 0 mm 2 mps 742 mmHg 95%
    02:00 +13°C° 0 mm 2 mps 742 mmHg 94%
    03:00 +12°C° 0 mm 2 mps 742 mmHg 93%
    04:00 +13°C° 0 mm 2 mps 742 mmHg 92%
    05:00 +13°C° 0 mm 2 mps 743 mmHg 91%
    06:00 +14°C° 0 mm 2 mps 743 mmHg 90%
    07:00 +15°C° 0 mm 2 mps 743 mmHg 86%
    08:00 +16°C° 0 mm 1 mps 744 mmHg 82%
    09:00 +19°C° 0 mm 1 mps 744 mmHg 78%
    10:00 +19°C° 0.1 mm 1 mps 745 mmHg 76%
    11:00 +20°C° 0.1 mm 1 mps 745 mmHg 75%
    12:00 +21°C° 0.1 mm 1 mps 745 mmHg 73%
    13:00 +19°C° 0.6 mm 2 mps 746 mmHg 75%
    14:00 +19°C° 0.6 mm 2 mps 746 mmHg 78%
    15:00 +19°C° 0.6 mm 3 mps 746 mmHg 81%
    16:00 +18°C° 0.6 mm 2 mps 747 mmHg 83%
    17:00 +18°C° 0.6 mm 2 mps 747 mmHg 85%
    18:00 +18°C° 0.6 mm 2 mps 748 mmHg 87%
    19:00 +16°C° 0.2 mm 2 mps 748 mmHg 89%
    20:00 +15°C° 0.2 mm 2 mps 749 mmHg 91%
    21:00 +14°C° 0.2 mm 2 mps 750 mmHg 93%
    22:00 +14°C° 0 mm 2 mps 750 mmHg 93%
    23:00 +13°C° 0 mm 1 mps 750 mmHg 93%

    21 July, Sunday

    Time Temperature Precipitation Wind Pressure Humidity
    00:00 +13°C° 0 mm 1 mps 751 mmHg 93%
    01:00 +12°C° 0 mm 2 mps 751 mmHg 92%
    02:00 +12°C° 0 mm 2 mps 751 mmHg 92%
    03:00 +10°C° 0 mm 2 mps 751 mmHg 91%
    04:00 +12°C° 0 mm 2 mps 752 mmHg 90%
    05:00 +12°C° 0 mm 2 mps 752 mmHg 89%
    06:00 +13°C° 0 mm 2 mps 752 mmHg 88%
    07:00 +13°C° 0 mm 3 mps 752 mmHg 84%
    08:00 +14°C° 0 mm 3 mps 753 mmHg 80%
    09:00 +17°C° 0 mm 3 mps 753 mmHg 76%
    10:00 +17°C° 0 mm 3 mps 753 mmHg 75%
    11:00 +18°C° 0 mm 4 mps 753 mmHg 73%
    12:00 +18°C° 0 mm 4 mps 753 mmHg 72%
    13:00 +18°C° 0 mm 4 mps 753 mmHg 75%
    14:00 +18°C° 0 mm 4 mps 753 mmHg 78%
    15:00 +17°C° 0 mm 4 mps 753 mmHg 81%
    16:00 +17°C° 0 mm 4 mps 753 mmHg 83%
    17:00 +17°C° 0 mm 4 mps 752 mmHg 85%
    18:00 +15°C° 0 mm 4 mps 752 mmHg 86%
    19:00 +15°C° 0.4 mm 4 mps 752 mmHg 89%
    20:00 +15°C° 0.4 mm 4 mps 752 mmHg 93%
    21:00 +15°C° 0.4 mm 4 mps 752 mmHg 96%
    22:00 +15°C° 0.8 mm 4 mps 752 mmHg 96%
    23:00 +15°C° 0.8 mm 5 mps 752 mmHg 95%

    22 July, Monday

    Time Temperature Precipitation Wind Pressure Humidity
    00:00 +15°C° 0.8 mm 5 mps 751 mmHg 95%
    01:00 +15°C° 0.3 mm 5 mps 751 mmHg 95%
    02:00 +15°C° 0.3 mm 5 mps 751 mmHg 96%
    03:00 +15°C° 0.3 mm 6 mps 750 mmHg 96%
    04:00 +15°C° 0.3 mm 6 mps 750 mmHg 95%
    05:00 +15°C° 0.3 mm 6 mps 750 mmHg 95%
    06:00 +16°C° 0.3 mm 7 mps 750 mmHg 94%
    07:00 +16°C° 0.1 mm 7 mps 750 mmHg 94%
    08:00 +16°C° 0.1 mm 7 mps 751 mmHg 93%
    09:00 +17°C° 0.1 mm 8 mps 751 mmHg 92%
    10:00 +17°C° 0 mm 8 mps 752 mmHg 89%
    11:00 +18°C° 0 mm 8 mps 752 mmHg 87%
    12:00 +20°C° 0 mm 8 mps 752 mmHg 84%
    13:00 +21°C° 0 mm 7 mps 753 mmHg 81%
    14:00 +22°C° 0 mm 7 mps 753 mmHg 77%
    15:00 +23°C° 0 mm 6 mps 753 mmHg 74%
    16:00 +22°C° 0 mm 6 mps 753 mmHg 77%
    17:00 +22°C° 0 mm 6 mps 753 mmHg 80%
    18:00 +21°C° 0 mm 6 mps 753 mmHg 83%
    19:00 +20°C° 0 mm 5 mps 753 mmHg 86%
    20:00 +19°C° 0 mm 4 mps 754 mmHg 88%
    21:00 +18°C° 0 mm 4 mps 754 mmHg 90%
    22:00 +17°C° 0 mm 3 mps 754 mmHg 92%
    23:00 +17°C° 0 mm 3 mps 754 mmHg 93%

    23 July, Tuesday

    Time Temperature Precipitation Wind Pressure Humidity
    00:00 +16°C° 0 mm 2 mps 754 mmHg 95%
    01:00 +16°C° 0 mm 2 mps 754 mmHg 95%
    02:00 +15°C° 0 mm 2 mps 754 mmHg 95%
    03:00 +15°C° 0 mm 2 mps 754 mmHg 95%
    04:00 +15°C° 0 mm 2 mps 754 mmHg 94%
    05:00 +16°C° 0 mm 2 mps 754 mmHg 93%
    06:00 +16°C° 0 mm 2 mps 753 mmHg 92%
    07:00 +18°C° 0 mm 2 mps 754 mmHg 87%
    08:00 +19°C° 0 mm 2 mps 754 mmHg 81%
    09:00 +20°C° 0 mm 2 mps 754 mmHg 76%
    10:00 +21°C° 0 mm 2 mps 754 mmHg 73%
    11:00 +23°C° 0 mm 2 mps 754 mmHg 70%
    12:00 +24°C° 0 mm 3 mps 753 mmHg 68%
    13:00 +24°C° 0 mm 3 mps 753 mmHg 70%
    14:00 +24°C° 0 mm 3 mps 753 mmHg 72%
    15:00 +23°C° 0 mm 4 mps 752 mmHg 74%
    16:00 +22°C° 0 mm 4 mps 752 mmHg 77%
    17:00 +22°C° 0 mm 4 mps 752 mmHg 81%
    18:00 +22°C° 0 mm 4 mps 751 mmHg 84%
    19:00 +20°C° 0.1 mm 3 mps 751 mmHg 86%
    20:00 +19°C° 0.1 mm 3 mps 751 mmHg 88%
    21:00 +18°C° 0.1 mm 3 mps 751 mmHg 91%
    22:00 +18°C° 1 mm 3 mps 751 mmHg 93%
    23:00 +18°C° 1 mm 2 mps 751 mmHg 95%
    Show more